Change the Weather History Date:

Monday, October 22, 2012

  Actual Average Record
Temperature  
Mean Temperature 62 °F 51 °F  
Max Temperature 72 °F 62 °F 80 °F (1915)
Min Temperature 51 °F 39 °F 24 °F (1966)
Degree Days  
Heating Degree Days 3 14  
Month to date heating degree days 160 232  
Since 1 July heating degree days 167 321  
Cooling Degree Days 0 0  
Month to date cooling degree days 7 5  
Year to date cooling degree days 1615 1158  
Growing Degree Days 12 (Base 50)    
Moisture  
Dew Point 40 °F    
Average Humidity 47    
Maximum Humidity 66    
Minimum Humidity 27    
Precipitation  
Precipitation 0.00 in 0.05 in 0.41 in (1985)
Month to date precipitation 0.56 1.06  
Year to date precipitation 8.65 12.78  
Snow  
Snow 0.00 in 0.10 in 0.50 in (1995)
Month to date snowfall 0.0 0.7  
Since 1 July snowfall 0.0 0.7  
Snow Depth 0.00 in    
Sea Level Pressure  
Sea Level Pressure 29.57 in    
Wind  
Wind Speed 15 mph (South)    
Max Wind Speed 30 mph    
Max Gust Speed 39 mph    
Visibility 10 miles    
Events Rain    
T = Trace of Precipitation, MM = Missing Value Source: NWS Daily Summary

Daily Weather History Graph

Daily Weather History Graph

Search for Another Location

Airport or City:

Trip Planner

Search our weather history database for the weather conditions in past years. The results will help you decide how hot, cold, wet, or windy it might be!

Date:

Astronomy

Oct. 22, 2012 Rise Set
Actual Time 7:47 AM MDT 6:36 PM MDT
Civil Twilight 7:19 AM MDT 7:04 PM MDT
Nautical Twilight 6:47 AM MDT 7:36 PM MDT
Astronomical Twilight 6:15 AM MDT 8:07 PM MDT
Moon 2:49 PM MDT (10/22) 12:36 AM MDT (10/22)
Length of Visible Light 11h 44m
Length of Day
10h 48m
First Quarter, 57% of the Moon is Illuminated
Oct 22
First Quarter
Oct 29
Full
Nov 6
Last Quarter
Nov 13
New
Nov 20
First Quarter

Hourly Weather History & Observations

Time (MDT) Temp. Dew Point Humidity Pressure Visibility Wind Dir Wind Speed Gust Speed Precip Events Conditions
12:53 AM 64.0 °F 39.9 °F 41% 29.60 in 10.0 mi South 17.3 mph - N/A   Mostly Cloudy
1:53 AM 64.0 °F 39.9 °F 41% 29.60 in 10.0 mi South 18.4 mph - N/A   Mostly Cloudy
2:53 AM 57.9 °F 44.1 °F 60% 29.63 in 10.0 mi NW 10.4 mph 16.1 mph N/A   Mostly Cloudy
3:53 AM 54.0 °F 42.1 °F 64% 29.64 in 10.0 mi Calm Calm - N/A   Overcast
4:53 AM 54.0 °F 41.0 °F 62% 29.63 in 10.0 mi North 3.5 mph - N/A   Overcast
5:53 AM 61.0 °F 41.0 °F 48% 29.61 in 10.0 mi South 13.8 mph - N/A   Mostly Cloudy
6:45 AM 53.6 °F 42.8 °F 67% 29.73 in 10.0 mi North 20.7 mph - N/A   Overcast
6:53 AM 53.1 °F 39.9 °F 61% 29.65 in 10.0 mi North 16.1 mph - N/A   Overcast
7:53 AM 52.0 °F 39.0 °F 61% 29.63 in 10.0 mi NNW 5.8 mph - N/A   Mostly Cloudy
8:53 AM 54.0 °F 41.0 °F 62% 29.61 in 10.0 mi SSE 9.2 mph - N/A   Mostly Cloudy
9:53 AM 62.1 °F 41.0 °F 46% 29.60 in 10.0 mi South 16.1 mph 29.9 mph N/A   Mostly Cloudy
10:53 AM 64.0 °F 41.0 °F 43% 29.58 in 10.0 mi South 20.7 mph 34.5 mph N/A   Mostly Cloudy
11:53 AM 64.9 °F 41.0 °F 42% 29.54 in 10.0 mi South 27.6 mph 42.6 mph N/A   Mostly Cloudy
12:53 PM 68.0 °F 37.9 °F 33% 29.53 in 10.0 mi South 24.2 mph 40.3 mph N/A   Mostly Cloudy
1:53 PM 72.0 °F 37.0 °F 28% 29.49 in 10.0 mi South 27.6 mph 35.7 mph N/A   Mostly Cloudy
2:53 PM 70.0 °F 37.0 °F 30% 29.49 in 10.0 mi South 24.2 mph 35.7 mph N/A   Mostly Cloudy
3:53 PM 71.1 °F 36.0 °F 28% 29.48 in 10.0 mi South 23.0 mph 34.5 mph N/A   Mostly Cloudy
4:53 PM 71.1 °F 34.0 °F 26% 29.47 in 10.0 mi South 21.9 mph 32.2 mph N/A   Mostly Cloudy
5:53 PM 70.0 °F 34.0 °F 27% 29.47 in 10.0 mi South 19.6 mph 33.4 mph N/A   Mostly Cloudy
6:53 PM 66.9 °F 36.0 °F 32% 29.50 in 10.0 mi SSW 15.0 mph 28.8 mph N/A   Overcast
7:53 PM 66.9 °F 36.0 °F 32% 29.50 in 10.0 mi South 18.4 mph 26.5 mph N/A   Mostly Cloudy
8:53 PM 66.0 °F 35.1 °F 32% 29.52 in 10.0 mi South 17.3 mph - N/A   Overcast
9:09 PM 60.8 °F 39.2 °F 45% 29.66 in 10.0 mi West 12.7 mph 24.2 mph N/A   Overcast
9:53 PM 57.0 °F 45.0 °F 64% 29.59 in 10.0 mi North 13.8 mph - 0.00 in   Overcast
10:53 PM 54.0 °F 46.0 °F 75% 29.59 in 10.0 mi North 16.1 mph - 0.00 in   Overcast
11:53 PM 51.8 °F 46.4 °F 82% 29.70 in 7.0 mi North 13.8 mph - N/A Rain Light Rain